Hourly Weather Barranca de Upia

Today, 19 April, Monday

Time Temperature Precipitation Wind Pressure Humidity
00:00 +25°C° 0 mm 1 mps 738 mmHg 85%
01:00 +24°C° 0 mm 1 mps 738 mmHg 84%
02:00 +24°C° 0 mm 1 mps 738 mmHg 84%
03:00 +24°C° 0 mm 1 mps 738 mmHg 84%
04:00 +24°C° 0 mm 1 mps 738 mmHg 84%
05:00 +25°C° 0 mm 1 mps 739 mmHg 83%
06:00 +25°C° 0 mm 1 mps 739 mmHg 82%
07:00 +26°C° 0 mm 1 mps 740 mmHg 81%
08:00 +28°C° 0 mm 1 mps 740 mmHg 73%
09:00 +30°C° 0 mm 1 mps 741 mmHg 65%
10:00 +32°C° 0 mm 1 mps 741 mmHg 56%
11:00 +33°C° 0 mm 1 mps 740 mmHg 53%
12:00 +34°C° 0 mm 2 mps 739 mmHg 50%
13:00 +35°C° 0 mm 3 mps 739 mmHg 46%
14:00 +35°C° 0 mm 3 mps 738 mmHg 49%
15:00 +34°C° 0 mm 2 mps 737 mmHg 52%
16:00 +34°C° 0 mm 2 mps 737 mmHg 54%
17:00 +31°C° 0 mm 2 mps 737 mmHg 58%
18:00 +30°C° 0 mm 1 mps 738 mmHg 63%
19:00 +28°C° 0 mm 1 mps 738 mmHg 67%
20:00 +28°C° 0 mm 1 mps 739 mmHg 68%
21:00 +28°C° 0 mm 1 mps 739 mmHg 70%
22:00 +27°C° 0 mm 1 mps 739 mmHg 71%
23:00 +27°C° 0 mm 1 mps 739 mmHg 73%

Tomorrow, 20 April, Tuesday

Time Temperature Precipitation Wind Pressure Humidity
00:00 +26°C° 0 mm 1 mps 738 mmHg 75%
01:00 +25°C° 0 mm 1 mps 738 mmHg 77%
02:00 +25°C° 0 mm 1 mps 738 mmHg 77%
03:00 +25°C° 0 mm 1 mps 738 mmHg 77%
04:00 +25°C° 0 mm 1 mps 738 mmHg 78%
05:00 +25°C° 0 mm 1 mps 739 mmHg 77%
06:00 +26°C° 0 mm 1 mps 739 mmHg 76%
07:00 +26°C° 0 mm 1 mps 740 mmHg 75%
08:00 +28°C° 0 mm 1 mps 740 mmHg 65%
09:00 +30°C° 0 mm 1 mps 740 mmHg 56%
10:00 +34°C° 0 mm 2 mps 741 mmHg 47%
11:00 +34°C° 0 mm 2 mps 740 mmHg 44%
12:00 +35°C° 0 mm 3 mps 739 mmHg 42%
13:00 +35°C° 0 mm 3 mps 739 mmHg 40%
14:00 +35°C° 0 mm 3 mps 738 mmHg 43%
15:00 +35°C° 0 mm 2 mps 737 mmHg 47%
16:00 +33°C° 0 mm 1 mps 737 mmHg 51%
17:00 +32°C° 0 mm 1 mps 737 mmHg 54%
18:00 +30°C° 0 mm 1 mps 737 mmHg 57%
19:00 +29°C° 0 mm 1 mps 738 mmHg 61%
20:00 +28°C° 0 mm 1 mps 738 mmHg 62%
21:00 +28°C° 0 mm 1 mps 739 mmHg 64%
22:00 +25°C° 0 mm 0 mps 739 mmHg 66%
23:00 +27°C° 0 mm 1 mps 739 mmHg 68%

Day after tomorrow, 21 April, Wednesday

Time Temperature Precipitation Wind Pressure Humidity
00:00 +26°C° 0 mm 1 mps 738 mmHg 69%
01:00 +26°C° 0 mm 1 mps 738 mmHg 71%
02:00 +25°C° 0 mm 1 mps 738 mmHg 72%
03:00 +25°C° 0 mm 1 mps 738 mmHg 73%
04:00 +25°C° 0 mm 1 mps 737 mmHg 73%
05:00 +25°C° 0 mm 1 mps 738 mmHg 72%
06:00 +26°C° 0 mm 1 mps 739 mmHg 71%
07:00 +26°C° 0 mm 1 mps 739 mmHg 70%
08:00 +29°C° 0 mm 1 mps 740 mmHg 63%
09:00 +31°C° 0 mm 1 mps 740 mmHg 55%
10:00 +33°C° 0 mm 1 mps 740 mmHg 47%
11:00 +34°C° 0 mm 1 mps 739 mmHg 45%
12:00 +34°C° 0 mm 1 mps 739 mmHg 43%
13:00 +36°C° 0 mm 2 mps 738 mmHg 40%
14:00 +35°C° 0 mm 2 mps 737 mmHg 45%
15:00 +33°C° 0 mm 1 mps 737 mmHg 50%
16:00 +32°C° 0 mm 1 mps 736 mmHg 54%
17:00 +31°C° 0 mm 1 mps 737 mmHg 57%
18:00 +30°C° 0 mm 1 mps 737 mmHg 60%
19:00 +29°C° 0 mm 1 mps 737 mmHg 63%
20:00 +28°C° 0 mm 1 mps 737 mmHg 64%
21:00 +28°C° 0 mm 1 mps 738 mmHg 65%
22:00 +27°C° 0 mm 1 mps 738 mmHg 66%
23:00 +27°C° 0 mm 1 mps 738 mmHg 67%

22 April, Thursday

Time Temperature Precipitation Wind Pressure Humidity
00:00 +26°C° 0 mm 1 mps 737 mmHg 67%
01:00 +26°C° 0 mm 1 mps 737 mmHg 68%
02:00 +25°C° 0 mm 1 mps 737 mmHg 69%
03:00 +25°C° 0 mm 1 mps 737 mmHg 69%
04:00 +25°C° 0 mm 1 mps 737 mmHg 70%
05:00 +26°C° 0 mm 1 mps 738 mmHg 69%
06:00 +26°C° 0 mm 1 mps 739 mmHg 68%
07:00 +27°C° 0 mm 1 mps 739 mmHg 68%
08:00 +29°C° 0 mm 1 mps 739 mmHg 60%
09:00 +30°C° 0 mm 0 mps 740 mmHg 52%
10:00 +33°C° 0 mm 0 mps 740 mmHg 44%
11:00 +35°C° 0 mm 1 mps 739 mmHg 41%
12:00 +36°C° 0 mm 1 mps 738 mmHg 39%
13:00 +37°C° 0 mm 2 mps 737 mmHg 36%
14:00 +36°C° 0 mm 2 mps 737 mmHg 39%
15:00 +35°C° 0 mm 1 mps 736 mmHg 43%
16:00 +34°C° 0 mm 1 mps 736 mmHg 46%
17:00 +32°C° 0 mm 1 mps 736 mmHg 50%
18:00 +31°C° 0 mm 1 mps 736 mmHg 55%
19:00 +29°C° 0 mm 1 mps 737 mmHg 59%
20:00 +28°C° 0 mm 1 mps 737 mmHg 61%
21:00 +28°C° 0 mm 1 mps 737 mmHg 64%
22:00 +27°C° 0 mm 1 mps 738 mmHg 66%
23:00 +27°C° 0 mm 1 mps 737 mmHg 66%

23 April, Friday

Time Temperature Precipitation Wind Pressure Humidity
00:00 +26°C° 0 mm 1 mps 737 mmHg 67%
01:00 +26°C° 0 mm 1 mps 737 mmHg 68%
02:00 +26°C° 0 mm 1 mps 737 mmHg 68%
03:00 +25°C° 0 mm 1 mps 737 mmHg 69%
04:00 +25°C° 0 mm 1 mps 737 mmHg 70%
05:00 +26°C° 0 mm 1 mps 737 mmHg 69%
06:00 +27°C° 0 mm 1 mps 738 mmHg 68%
07:00 +27°C° 0 mm 1 mps 738 mmHg 66%
08:00 +30°C° 0 mm 1 mps 739 mmHg 59%
09:00 +30°C° 0 mm 0 mps 739 mmHg 51%
10:00 +33°C° 0 mm 0 mps 739 mmHg 43%
11:00 +36°C° 0 mm 1 mps 738 mmHg 40%
12:00 +36°C° 0 mm 1 mps 738 mmHg 38%
13:00 +37°C° 0 mm 1 mps 737 mmHg 35%
14:00 +36°C° 0 mm 1 mps 736 mmHg 37%
15:00 +36°C° 0 mm 1 mps 736 mmHg 39%
16:00 +35°C° 0 mm 1 mps 735 mmHg 41%
17:00 +34°C° 0 mm 1 mps 735 mmHg 46%
18:00 +32°C° 0 mm 1 mps 736 mmHg 50%
19:00 +30°C° 0 mm 1 mps 736 mmHg 55%
20:00 +30°C° 0 mm 1 mps 736 mmHg 56%
21:00 +29°C° 0 mm 1 mps 737 mmHg 57%
22:00 +29°C° 0 mm 1 mps 737 mmHg 59%
23:00 +29°C° 0 mm 1 mps 737 mmHg 59%

24 April, Saturday

Time Temperature Precipitation Wind Pressure Humidity
00:00 +29°C° 0 mm 1 mps 737 mmHg 60%
01:00 +29°C° 0 mm 1 mps 737 mmHg 61%
02:00 +28°C° 0 mm 1 mps 736 mmHg 62%
03:00 +25°C° 0 mm 0 mps 736 mmHg 64%
04:00 +25°C° 0 mm 0 mps 736 mmHg 66%
05:00 +25°C° 0.1 mm 0 mps 737 mmHg 67%
06:00 +25°C° 0.1 mm 0 mps 738 mmHg 68%
07:00 +26°C° 0.1 mm 0 mps 738 mmHg 70%
08:00 +28°C° 0 mm 0 mps 738 mmHg 62%
09:00 +30°C° 0 mm 0 mps 739 mmHg 54%
10:00 +34°C° 0 mm 1 mps 739 mmHg 46%
11:00 +34°C° 0 mm 1 mps 738 mmHg 46%
12:00 +35°C° 0 mm 2 mps 737 mmHg 47%
13:00 +35°C° 0 mm 2 mps 737 mmHg 47%
14:00 +35°C° 0 mm 2 mps 736 mmHg 48%
15:00 +35°C° 0 mm 2 mps 736 mmHg 49%
16:00 +34°C° 0 mm 2 mps 735 mmHg 50%
17:00 +32°C° 0 mm 2 mps 735 mmHg 56%
18:00 +30°C° 0 mm 2 mps 736 mmHg 61%
19:00 +29°C° 0 mm 2 mps 736 mmHg 66%
20:00 +28°C° 0 mm 2 mps 736 mmHg 67%
21:00 +28°C° 0 mm 1 mps 736 mmHg 67%
22:00 +28°C° 0 mm 1 mps 737 mmHg 67%
23:00 +27°C° 0 mm 1 mps 737 mmHg 68%
Show more